Weather in Sinop

Turkey     42°01′35″N   35°09′28″E
temp.,
°C
wind,
m/s
gust,
m/s
humid.,
%
clouds,
%
prec.,
mm/h
press.,
hPa
HPBL,
m
11 april, sun
sun1100:00+7nw91082100 0.4 10221033
03:00+6wnw101187100 2.4 1021965
06:00+6nw91092100 4.9 1020910
09:00+7wnw131492100 8.2 1020987
12:00+6w141593100 4.4 1020886
15:00+7w141789100 5.6 1019777
18:00+8nw8994100 0.9 1020677
21:00+7w121489100 3.8 1021831
12 april, mon
mon1200:00+7w91188100 1.4 1021926
03:00+8w91283100 1.8 1021875
06:00+8w81185100 0.1 1021851
09:00+8s3369100 0.1 1021199
12:00+9ene117159 0.0 1022120
15:00+9n227310 0.0 1022268
18:00+9wnw658394 0.0 1023425
21:00+8wnw5685100 0.0 1024389
13 april, tue
tue1300:00+8wnw3384100 0.1 1024243
03:00+8ese3484100 0.1 1023330
06:00+8ene3485100 0.0 1023373
09:00+8e248898 0.1 1023344
12:00+9ese5586100 0.0 1022278
15:00+9ese7988100 0.0 1021234
18:00+9ese71086100 0.0 1020278
21:00+9ese91386100 0.0 1020383
14 april, wed
wed1400:00+9ese91388100 0.0 1018351
03:00+9ese81090100 0.0 1017268
06:00+9ese8119055 0.0 1016265
09:00+9ese6890100 0.0 1017177
12:00+10e679011 0.0 1016108
15:00+10ssw1187100 0.0 101614
18:00+10se558998 0.3 1016106
21:00+10se69885 0.5 1015131
15 april, thu
thu1500:00+10ese7118692 0.0 1013130
03:00+10se5691100 0.5 101284
06:00+11wnw57880 0.4 101376
09:00+10wnw711924 0.4 1014135
12:00+10nw711939 0.0 1016263
15:00+10nw689017 0.0 1017246
18:00+10nw228993 0.0 101844
21:00+9sse338997 0.0 101846